Regional Weather Roundup
Issued by NWS

Home | Current Version | Previous Version | Text Only | Print | Product List | Glossary Off
Versions: 1 2 3 4 5 6 7 8 9 10 11 12 13 14 15 16 17 18 19 20 21 22 23 24 25 26 27 28

000
ASUS45 KTFX 262210
RWRMT
MONTANA REGIONAL WEATHER ROUNDUP
NATIONAL WEATHER SERVICE GREAT FALLS MT
300 PM MST SUN FEB 26 2017

NOTE: "FAIR" INDICATES FEW OR NO CLOUDS BELOW 12000 FEET WITH NO
SIGNIFICANT WEATHER AND/OR OBSTRUCTIONS TO VISIBILITY.

MTZ001>007-043-262300-
WEST OF THE DIVIDE

CITY           SKY/WX    TMP DP  RH WIND       PRES   REMARKS
KALISPELL      SNOW      23  19  85 NE21      29.67F VSB 1/2 WCI   8
MISSOULA       LGT SNOW  30  26  85 SE8       29.64F FOG     WCI  22
BUTTE          CLOUDY    25  11  55 S13       29.58F WCI  14
MULLAN PASS    LGT SNOW  19  17  92 CALM      29.49F VSB 3/4
ANACONDA         N/A     30  10  43 S13G18    29.58F WCI  20
DEER LODGE       N/A     30  14  51 SE6       29.61F WCI  24
EUREKA           N/A     27  19  74 W7        29.70F WCI  19
HAMILTON         N/A     34  21  60 S9        29.62S WCI  26
LIBBY            N/A     32  23  69 NW5       29.63F
PLAINS           N/A     33  23  67 CALM      29.68F
RONAN            N/A     30  24  78 SW1       29.70F
$$

MTZ008-052>055-262300-
SOUTHWEST MONTANA

CITY           SKY/WX    TMP DP  RH WIND       PRES   REMARKS
BOZEMAN        CLOUDY    28  19  69 E10       29.65F WCI  19
DILLON         CLOUDY    27   8  44 S10G21    29.61F WCI  17
W YELLOWSTONE  LGT SNOW  16  10  79 SW15      29.67F VSB 1   WCI   1
ENNIS          MOSUNNY   27   7  43 S21G29    29.68F WCI  13
THREE FORKS      N/A     32  32 100 S20       29.67F WCI  20
TWIN BRIDGES     N/A     28  10  46 S17       29.67F WCI  16
$$

MTZ009-010-012-014-046-048-049-054-262300-
EAST SLOPES AND CENTRAL MONTANA

CITY           SKY/WX    TMP DP  RH WIND       PRES   REMARKS
CUT BANK       CLOUDY    18   7  62 N15       29.75F WCI   4
GREAT FALLS    LGT SNOW  21  15  78 N13       29.74S VSB 3/4 WCI   9
MALMSTROM AFB  FLURRIES  21  16  80 N9        29.75S WCI  11
HELENA         LGT SNOW  24  20  84 N8        29.67F FOG     WCI  15
AUGUSTA        LGT SNOW  16  12  86 NE14      29.70F FOG     WCI   1
BOWMANS CRNR   LGT SNOW  16  13  89 NE13      29.69F WCI   2
CHOTEAU          N/A     21  12  68 NE12      29.76S WCI   9
CONRAD           N/A     20  14  77 NW10      29.80S WCI   9
POWER          FLURRIES  19  12  74 N13       29.73S WCI   6
RAYNESFORD     LGT SNOW  19  16  86 NW13      29.71R FOG     WCI   6
ULM            LGT SNOW  21  17  84 MISG      29.74F
$$

MTZ011-013-016-021-045-047-050-051-262300-
NORTH CENTRAL MONTANA

CITY           SKY/WX    TMP DP  RH WIND       PRES   REMARKS
HAVRE          CLOUDY    24  12  60 N9        29.80S WCI  14
LEWISTOWN      CLOUDY    25  17  72 N12       29.67S WCI  14
N BAR RANCH    MIX PCPN  23  19  86 S6        29.68F WCI  16
CHINOOK          N/A     25  10  54 NW6       29.81S WCI  18
DENTON         FLURRIES  23  18  80 N12       29.68F WCI  11
FORT BENTON      N/A     25  12  58 MISG      29.79S
GEYSER         LGT SNOW  20  16  84 NE13      29.69S WCI   7
GRASS RANGE    FLURRIES  27  20  73 NE6       29.65F WCI  21
JUDITH GAP     FLURRIES  20  17  84 N13       29.62F WCI   8
ROY            PTSUNNY   27  19  71 MISG      29.69F
STANFORD       LGT SNOW  20  18  93 N15       29.66F FOG     WCI   6
WINIFRED       FLURRIES  24  18  78 N8        29.70S WCI  15
$$

MTZ017>020-022>027-061-062-262300-
NORTHEAST MONTANA

CITY           SKY/WX    TMP DP  RH WIND       PRES   REMARKS
GLASGOW        PTSUNNY   25  13  60 N14       29.78S WCI  13
JORDAN           N/A     29  14  53 NW13      29.76R WCI  19
SIDNEY         PTSUNNY   28  17  63 NW13      29.79R WCI  17
WOLF POINT     CLOUDY    28  16  60 NW12      29.79R WCI  18
PLENTYWOOD       N/A     21  16  79 NW15      29.75S WCI   8
POPLAR           N/A     25  12  58 NW10      29.79S WCI  15
SCOBEY           N/A     23   8  52 NW15      29.76R WCI  10
$$

MTZ028>42-056>058-262300-
SOUTHCENTRAL AND SOUTHEAST MONTANA

CITY           SKY/WX    TMP DP  RH WIND       PRES   REMARKS
BAKER          CLOUDY    28  20  71 NW21      29.73R WCI  15
BILLINGS       CLOUDY    34  11  38 VRB3      29.68F
LIVINGSTON     CLOUDY    31  12  45 W17       29.62F WCI  19
MILES CITY     MOSUNNY   34  15  46 NW14      29.75R WCI  25
BIG TIMBER     MOSUNNY   30  16  55 W17G25    29.65S WCI  18
EKALAKA          N/A     32  14  47 W14       29.70S WCI  22
FORSYTH          N/A     36  16  44 NW8       29.73F WCI  29
HARLOWTON      PTSUNNY   32  13  44 SW12      29.63F WCI  23
LAUREL           N/A     37   7  29 SE7       29.68F WCI  31
$$

REGIONAL REPORTS...DAKOTAS

CITY           SKY/WX    TMP DP  RH WIND       PRES   REMARKS
WILLISTON      MOSUNNY   24  15  68 NW9       29.78R WCI  14
MINOT          SUNNY     21   9  59 S10       29.77R WCI  10
DICKINSON      CLOUDY    27  18  69 N15       29.70R WCI  15
BEACH            N/A    N/A N/A N/A MISG        N/A
CROSBY         MIX PCPN  23  18  80 W15       29.77R WCI  10
TIOGA            N/A     19  16  86 W12       29.76R WCI   7
WATFORD CITY     N/A     23  14  68 N3        29.77S
BISMARCK       MIX PCPN  22  15  75 E10       29.79R WCI  11
GRAND FORKS    SUNNY     19   4  51 W9        29.86S WCI   8
FARGO          SUNNY     20   9  62 W7        29.89S WCI  11
BUFFALO SD       N/A     37  17  44 W22G32    29.65R WCI  26
RAPID CITY     MOSUNNY   37  15  40 NE7       29.75S WCI  32
$$

REGIONAL REPORTS...WYOMING/IDAHO/WASHINGTON

CITY           SKY/WX    TMP DP  RH WIND       PRES   REMARKS
GILLETTE       SUNNY     33   9  36 S10       29.70F WCI  25
SHERIDAN       MOSUNNY   35  10  35 S12       29.70S WCI  27
BUFFALO WY     CLOUDY    28   6  39 S9        29.69S WCI  19
CODY           PTSUNNY   32   7  35 S14       29.65F WCI  22
YELLOWSTONE LA   N/A     17   4  56 W8        29.63F WCI   7
IDAHO FALLS    CLOUDY    28  16  60 SW18      29.76F WCI  15
SALMON         CLOUDY    30  18  59 S13       29.65F WCI  20
BOISE          CLOUDY    37  19  48 SE16      29.71F WCI  28
SPOKANE        LGT SNOW  30  28  92 CALM      29.65F FOG
$$

REGIONAL REPORTS...ALBERTA

CITY           SKY/WX    TMP DP  RH WIND       PRES   REMARKS
EDMONTON       SUNNY      9  -2  61 NW6       29.88F WCI  -1
CALGARY        PTSUNNY   14   3  62 N9        29.78F WCI   2
LETHBRIDGE     FLURRIES  19   9  63 N16       29.81F WCI   5
MEDICINE HAT   PTSUNNY   21   7  53 NW15      29.82S WCI   8
WATERTON GATE    N/A     16   5  62 NE7         N/A  WCI   6
MILK RIVER       N/A     19  10  68 N16         N/A  WCI   5
$$

REGIONAL REPORTS...SASKATCHEWAN

CITY           SKY/WX    TMP DP  RH WIND       PRES   REMARKS
SWIFT CURRENT  LGT SNOW  18  14  86 NW22      29.72R VSB 3/4 WCI   0
REGINA         FLURRIES  21  14  73 NW15G22   29.73S WCI   8
SASKATOON      MOSUNNY   10   1  67 NW17G25   29.79S WCI  -7
CYPRESS HILLS    N/A     12   9  85 NW10G20     N/A  WCI  -1
VAL MARIE        N/A     21  10  63 NW12        N/A  WCI   9
ROCKGLEN         N/A     18  10  73 NW12G17     N/A  WCI   5
ASSINIBOIA       N/A      9  -4  56 NW15        N/A  WCI  -8
$$




USA.gov is the U.S. government's official web portal to all federal, state and local government web resources and services.